Overview Statistics Trail Chart Weather Telemetry Raw packets
 

This is the latest recevied weather packets stored in our database for station/object KI5NXU. If no packets are shown the sender has not sent any weather packets the latest 10 day(s).

<< 51 52 53 54 55 56 57 >>
Time Temp. Humidity Pressure Rain* Wind** Luminosity Snow
1788018831 31.67° C 57% 1017.8 hPa 0 mm - 655 W/m² -
1788018527 31.67° C 57% 1017.9 hPa 0 mm - 625 W/m² -
1788018237 31.11° C 58% 1017.7 hPa 0 mm - 604 W/m² -
1788017922 31.11° C 59% 1017.8 hPa 0 mm - 578 W/m² -
1788017618 31.11° C 58% 1017.9 hPa 0 mm - 531 W/m² -
1788017314 30.56° C 59% 1017.8 hPa 0 mm - 537 W/m² -
1788017011 30.56° C 61% 1017.8 hPa 0 mm - 535 W/m² -
1788016709 30.56° C 61% 1017.7 hPa 0 mm - 521 W/m² -
1788016407 30.56° C 60% 1017.7 hPa 0 mm - 501 W/m² -
1788016102 30° C 62% 1017.9 hPa 0 mm - 475 W/m² -
1788015801 30° C 63% 1017.8 hPa 0 mm - 445 W/m² -
1788015496 30° C 63% 1017.6 hPa 0 mm - 397 W/m² -
1788015192 29.44° C 63% 1017.9 hPa 0 mm - 377 W/m² -
1788014889 29.44° C 63% 1017.9 hPa 0 mm - 347 W/m² -
1788014584 29.44° C 63% 1017.9 hPa 0 mm - 326 W/m² -
1788014280 29.44° C 64% 1018 hPa 0 mm - 299 W/m² -
1788013974 28.89° C 64% 1018.2 hPa 0 mm - 282 W/m² -
1788013668 28.89° C 65% 1017.9 hPa 0 mm - 263 W/m² -
1788013358 28.89° C 65% 1018 hPa 0 mm - 252 W/m² -
1788013057 28.33° C 66% 1017.8 hPa 0 mm - 225 W/m² -
1788012756 28.33° C 67% 1018 hPa 0 mm - 70 W/m² -
1788012452 27.78° C 66% 1017.9 hPa 0 mm - 198 W/m² -
1788012152 27.78° C 67% 1018 hPa 0 mm - 135 W/m² -
1788011851 28.33° C 65% 1018 hPa 0 mm - 163 W/m² -
1788011550 27.78° C 67% 1018 hPa 0 mm - 163 W/m² -

* Rain latest hour (hover to see other rain measurements)
** Current wind speed in m/s (hover to see current wind gust speed)